www.pogodaiklimat.ru

Погода и климат >> Архив погоды >> Россия >> Ставропольский край >> Буденновск


АРХИВ ПОГОДЫ в Буденновске

Время (UTC), дата Ветер
(напр.,м/с)
 
Видим.   Явления Облачность Т
(С)
Тd
(С)
f
(%)
Тe
(С)
Тes
(С)
Комфортность P
(гПа)
Po
(гПа)
Тmin
(С)
Tmax
(С)
R
(мм)
R24
(мм)
S
(см)
03 16.09 штиль 0 10 км ясно +9.7 +4.2 69 +9 +9 1020.5 1004.1 +9.7
06 16.09 В 2 10 км ясно +18.6 +5.7 43 +19 +25 1019.2 1003.3 +9.5
09 16.09 СВ 3 10 км ясно +24.1 +5.3 30 +24 +34 комфорт 1016.2 1000.7
12 16.09 ЮВ 2 10 км ясно +27.6 +4.7 23 +26 +32 жарко 1013.3 997.9
15 16.09 В 1 10 км 3/0
[Ci fib]
+25.0 +5.3 28 +25 +25 комфорт 1012.5 997.0 +27.9
18 16.09 штиль 0 20 км ясно +17.0 +5.6 47 +17 +17 1012.8 996.9
21 16.09 штиль 0 20 км ясно +15.2 +5.3 52 +15 +15 1012.7 996.7
00 17.09 Ю 1 20 км осадки на расстоянии 10/10 600 м
[Cb calv]
+17.7 +7.8 52 +19 +19 1012.1 996.2
03 17.09 З 1 10 км в посл. час ливневой дождь 10/10 600 м
[Cb calv]
+16.6 +8.9 60 +18 +18 1012.6 996.7 +14.1 0.1
06 17.09 СЗ 1 10 км слаб. ливневой дождь 10/10 600 м
[Cb calv]
+17.5 +10.8 65 +19 +19 1012.5 996.6
09 17.09 СЗ 3 10 км {ливн. осадки} 10/10 600 м
[Sc]
+20.5 +6.9 41 +22 +22 комфорт 1011.6 995.9
12 17.09 З 2 10 км слаб. ливневой дождь 10/10 600 м
[Cb calv]
+18.4 +12.2 67 +19 +19 1011.5 995.7
15 17.09 Ю 2 10 км слаб. ливневой дождь 10/10 600 м
[Cb calv]
+16.9 +14.9 88 +17 +17 1011.2 995.3 +21.9 1
18 17.09 Ю 3 4000 м дымка {ливн. осадки} 6/3 600 м
[Sc Ac trans Ci fib]
+15.7 +14.2 91 +15 +15 1011.5 995.6
21 17.09 Ю 2 4000 м дымка 3/0
[Ci fib]
+14.0 +12.8 92 +13 +13 1011.9 995.8
00 18.09 Ю 1 4000 м дымка 8/0
[Ac trans Ci fib]
+12.8 +11.2 90 +13 +13 1012.6 996.6
03 18.09 Ю 2 4000 м дымка 4/0
[Ci fib]
+11.6 +9.3 86 +10 +10 1013.7 997.5 +10.5 0.3
06 18.09 Ю 1 10 км 3/0
[Ac trans]
+18.6 +11.4 63 +20 +25 1014.3 998.5
09 18.09 ЮЗ 5 10 км 1/1 600 м
[Cu hum]
+26.8 +7.6 30 +27 +32 жарко 1012.6 997.2
12 18.09 ЮЗ 4
{12}
10 км 1/1 600 м
[Cu hum]
+29.5 +4.2 20 +28 +31 жарко 1010.9 995.7
15 18.09 Ю 2 10 км ясно +25.9 +5.1 26 +25 +25 комфорт 1010.3 994.9 +29.9
18 18.09 Ю 2 20 км ясно +20.5 +6.2 39 +22 +22 комфорт 1011.2 995.5
21 18.09 Ю 2 20 км ясно +17.6 +6.8 49 +18 +18 1012.0 996.2
00 19.09 СЗ 3
{10}
20 км ясно +16.4 +10.0 66 +16 +16 1015.3 999.4
03 19.09 СЗ 2 10 км ясно +13.6 +7.8 68 +13 +13 1017.5 1001.4 +13.4
06 19.09 СЗ 3 10 км 4/0
[Ac trans Cc]
+17.8 +7.0 49 +18 +21 1019.9 1004.0
09 19.09 З 2
{11}
10 км 8/4 1000 м
[Cu hum Ac trans]
+22.0 +4.2 31 +22 +26 комфорт 1019.2 1003.5
12 19.09 СЗ 3 10 км 8/3 600 м
[Sc Ac trans Cc]
+20.3 +1.5 29 +21 +23 комфорт 1019.5 1003.6
15 19.09 СЗ 2 10 км 9/8 600 м
[Sc Ac trans]
+18.7 +0.5 29 +19 +19 1020.0 1004.1 +22.4
18 19.09 В 1 20 км 10/10 600 м
[Sc]
+17.5 +0.1 31 +19 +19 1020.4 1004.4
21 19.09 В 1 20 км 3/0
[Ci fib]
+14.3 +1.1 41 +15 +15 1019.4 1003.2
00 20.09 С 2 20 км 10/4 600 м
[Sc Cs]
+11.8 +0.3 45 +11 +11 1019.6 1003.3
03 20.09 СВ 2 10 км 9/9 1000 м
[Sc]
+14.1 +0.4 39 +14 +14 1018.6 1002.4 +11.3
06 20.09 В 3 10 км 9/9 600 м
[Sc Ac trans]
+16.3 +1.6 37 +16 +16 1018.1 1002.1
09 20.09 СВ 3 10 км 4/3 600 м
[Cu hum Ac trans]
+21.9 +4.1 31 +22 +28 комфорт 1015.0 999.3
12 20.09 В 3
{11}
10 км 9/5 600 м
[Cu hum Ac trans Ci fib]
+23.1 +4.1 29 +23 +24 комфорт 1012.1 996.6
15 20.09 В 4
{11}
10 км 10/10 600 м
[Sc]
+20.8 +7.9 43 +22 +22 комфорт 1010.8 995.1 +23.7
18 20.09 СВ 4
{10}
20 км 10/10 600 м
[Sc]
+18.3 +9.4 56 +18 +18 1010.9 995.2
21 20.09 В 2 20 км 10/10 600 м
[Sc]
+17.0 +4.6 44 +17 +17 1009.5 993.6
00 21.09 СЗ 5-11
{11}
10 км {ливн. осадки} 10/10 600 м
[Sc]
+10.8 +5.8 71 +8 +8 1012.9 996.6
03 21.09 СЗ 2
{13}
4000 м слаб. ливневой дождь 10/10 600 м
[Cb calv]
+8.6 +7.4 92 +7 +7 1014.6 998.2 +8.6 4
06 21.09 З 2 4000 м слаб. ливневой дождь 10/10 600 м
[Cb calv]
+9.6 +8.1 90 +8 +8 1016.5 1000.1
09 21.09 СЗ 3 4000 м в посл. час ливневой дождь 10/10 600 м
[Cb calv]
+10.6 +7.6 82 +9 +9 1017.0 1000.7
12 21.09 З 3 10 км {ливн. осадки} 8/4 600 м
[Cu med, cong Ac trans]
+14.1 +6.2 59 +13 +15 1017.1 1001.0
15 21.09 З 1 10 км 8/3 600 м
[Cu med, cong Ac trans Ci fib]
+12.8 +5.9 63 +13 +13 1017.1 1000.9 +14.7 1
18 21.09 З 2 10 км в посл. час ливневой дождь 10/10 600 м
[Cb calv]
+9.7 +6.1 78 +8 +8 1019.1 1002.7
21 21.09 З 4 10 км 6/0
[Ac trans Ci fib]
+8.7 +5.2 79 +6 +6 1019.6 1003.1
00 22.09 ЮЗ 4 10 км 3/0
[Ci fib]
+7.3 +4.3 81 +4 +4 1020.5 1003.9
03 22.09 З 4 10 км ясно +6.6 +3.3 79 +3 +3 1022.0 1005.3 +6.5 0.1
06 22.09 З 6-10
{10}
10 км 3/0
[Ci fib]
+11.8 +5.5 65 +9 +11 1022.6 1006.3 +6.2
09 22.09 З 8-12
{14}
10 км 8/4 600 м
[Cu med, cong Ci fib]
+15.9 +1.1 37 +14 +15 1020.4 1004.3
12 22.09 З 9-14
{16}
10 км 1/0
[Ci fib]
+18.8 -0.9 26 +18 +18 1018.1 1002.2
15 22.09 З 5
{14}
10 км 6/3 600 м
[Sc Ac trans]
+17.2 +1.8 35 +17 +17 1017.9 1001.9 +19.1
18 22.09 ЮЗ 4
{10}
20 км ясно +14.8 +3.0 45 +14 +14 1019.0 1002.9
21 22.09 ЮЗ 4 20 км 1/0
[Ci fib]
+11.1 +3.9 61 +9 +9 1018.8 1002.5
00 23.09 ЮЗ 6 20 км ясно +10.4 +3.8 64 +7 +7 1018.3 1001.9

 

Местоположение метеостанции Буденновск (Ставропольский край, Россия): широта 44.78 долгота 44.13 высота над уровнем моря 136 м.

В архиве по умолчанию представлена погода в Буденновске за последнюю неделю. Архивные данные за месяц целиком и за предыдущие месяцы, начиная с января 2011 года, Вы можете получить, выбрав интересующий диапазон дат из раскрывающегося списка и нажав кнопку "Ввод!".


*Определитесь, кто Вы:
робот инопланетянин человек

Внимание! Время в таблицах - всемирное. Для получения местного времени необходимо прибавить поправку, которая равна 3 ч.

Смотрите также архив погоды в соседних городах и на ближайших метеорологических станциях:

Погода в Зеленокумске (Ставропольский край, Россия) (44 км)
Погода в Благодарном (Ставропольский край, Россия) (64 км)
Погода в Арзгире (Ставропольский край, Россия) (69 км)
Погода в Александровском (Ставропольский край, Россия) (90 км)
Погода в Георгиевске (Ставропольский край, Россия) (90 км)
Погода в Минеральных Водах (Ставропольский край, Россия) (103 км)
Погода в Рощино (Ставропольский край, Россия) (110 км)
Погода в Прохладный (Кабардино-Балкария, Россия) (115 км)
Погода в Светлограде (Ставропольский край, Россия) (119 км)
Погода в Ики-Буруле (Калмыкия, Россия) (120 км)

Пояснения к столбцам:

Ветер - указаны скорость ветра в м/с - средняя за 10 мин, порывы в срок и между сроками (в фигурных скобках) и направление, откуда дует ветер: С - северный, СВ - северо-восточный, В - восточный, ЮВ - юго-восточный, Ю - южный, ЮЗ - юго-западный, З - западный, СЗ - северо-западный.
Видимость - горизонтальная дальность видимости в метрах или километрах. При видимости от 1 до 10 км при отсутствии осадков обычно наблюдается дымка, при ухудшении видимости до 1 км и менее - туман. В сухую погоду видимость может ухудшаться дымом, пылью или мглою.
Явления - указаны атмосферные явления, наблюдавшиеся в срок или в последний час перед сроком; фигурными скобками обозначены явления, наблюдавшиеся между сроками (за 1-3 часа до срока); квадратными скобками обозначены град или гололедные отложения с указанием их диаметра в мм.
Облачность - указаны через наклонную черту общая и нижняя облачность в баллах и высота нижней границы облаков в метрах; квадратными скобками обозначены формы облаков: Ci - перистые, Cs - перисто-слоистые, Cc - перисто-кучевые, Ac - высококучевые, As - высокослоистые, Sc - слоисто-кучевые, Ns - слоисто-дождевые, Cu - кучевые, Cb - кучево-дождевые. Подробнее классификацию облаков см. в Атласе облаков (PDF).
T - Температура воздуха - температура, измеренная на высоте 2 м над землей.
Td - Температура точки росы - температура, при понижении до которой содержащийся в воздухе водяной пар достигнет насыщения.
f - Относительная влажность воздуха - влажноcть воздуха, измеренная на высоте 2 м над землей.
Te - Эффективная температура - температура, которую ощущает одетый по сезону человек в тени. Характеристика душности погоды. При расчете учитывается влияние влажности воздуха и скорости ветра на теплоощущения человека.
Tes - Эффективная температура на солнце - температура, которую ощущает человек, с поправкой на солнечный нагрев. Характеристика знойности погоды. Зависит от высоты солнца над горизонтом, облачности и скорости ветра. Ночью, в пасмурную погоду, а также при ветре 12 м/с и более поправка равна нулю.
P - Атмосферное давление - приведенное к уровню моря атмосферное давление.
Po - Атмосферное давление - измеренное на уровне метеостанции атмосферное давление.
Tmin - Минимальная температура - минимум температуры воздуха на высоте 2 м над землей.
Tmax - Максимальная температура - максимум температуры воздуха на высоте 2 м над землей.
R - Количество осадков - Количество выпавших осадков за период времени, мм. При наведении курсора мыши на число - период времени, за который выпало указанное количество осадков.
R24 - Количество осадков - Количество выпавших осадков за 24 часа, мм.
S - Снежный покров - Высота снежного покрова, см. При наведении курсора мыши на число - состояние снежного покрова и степень покрытия местности в баллах.